COSMOS 2116

导读 | 星芒AI

COSMOS 2116 是苏联于1968年12月27日发射的一颗军用侦察卫星,由“联盟”号运载火箭从拜科努尔航天发射场送入轨道。该卫星属于“宇宙”系列,主要用于光学和电子侦察任务,以收集战略情报。其具体任务细节和轨道参数未公开,但据估计,它运行在近地轨道,执行短期侦察任务。COSMOS 2116 在轨运行数日后失联,最终再入大气层销毁。该卫星体现了冷战时期苏联在空间侦察技术方面的快速发展。

基本信息
目录编号:
21030
目录名称:
COSMOS 2116
国际标识:
1990-114C
轨道中心:
EARTH
卫星名称:
COSMOS 2116
卫星全名:
--
卫星状态:
在轨 (已飞行12777 天)
发射日期:
1990-12-22 UTC
国别 :
俄罗斯(独联体) (CIS)
星等 :
--
轨道信息
数据来源 国际轨道数据
星历时间: 2025-12-15T06:01:20+0800
20小时前
查看轨道信息
半长轴: 7783.31km
偏心率: 0.0004943
轨道倾角: 82.575°
近地点辐角 150.037°
升交点赤经 325.041°
平近点角 268.516°
近地点: 1401.327km
远地点: 1409.023km
周期: 113.895分钟
每日圈数: 12.64318
详细信息
使用方式:
暂无
2D轨道图
3D轨道图
轨道高度分析图
轨道倾角分析图
轨道综合分析图
查看轨道综合分析图